Regional Weather Roundup
Issued by NWS Little Rock, AR

Home | Current Version | Previous Version | Graphics & Text | Print | Product List | Glossary On
Versions: 1 2 3 4 5 6 7 8 9 10 11 12 13 14 15 16 17 18 19 20 21 22 23 24 25 26 27 28 29 30 31 32 33 34 35 36 37 38 39 40 41 42 43 44 45 46 47 48 49 50
000
ASUS44 KLZK 182205
RWRLZK

WEATHER ROUNDUP FOR ARKANSAS
NATIONAL WEATHER SERVICE LITTLE ROCK AR
500 PM CDT SAT APR 18 2015

NOTE: "FAIR" INDICATES FEW OR NO CLOUDS BELOW 12,000 FEET WITH NO
SIGNIFICANT WEATHER AND/OR OBSTRUCTIONS TO VISIBILITY.

ARZ001-003-010-029-182300-
NORTHWEST ARKANSAS

CITY           SKY/WX    TMP DP  RH WIND       PRES   REMARKS
FAYETTEVILLE   CLOUDY    72  61  68 NE6       29.85F
FORT SMITH     SUNNY     74  60  61 SE6G17    29.83F
HARRISON       CLOUDY    65  59  81 NE3       29.89F
BENTONVILLE    PTSUNNY   70  57  64 SE3       29.87S
ROGERS         CLOUDY    69  58  67 E5        29.87F
SILOAM SPGS    CLOUDY    72  57  60 CALM      29.87S
HIGHFILL       CLOUDY    69  59  70 E5        29.86S
SPRINGDALE     CLOUDY    72  59  64 E6        29.88S
$$

ARZ004-005-016-182300-
NORTH CENTRAL ARKANSAS

CITY           SKY/WX    TMP DP  RH WIND       PRES   REMARKS
BATESVILLE     PTSUNNY   73  61  64 E5        29.86S
FLIPPIN        CLOUDY    72 N/A N/A SE7       29.85S
MTN HOME       CLOUDY    71  58  63 SE8       29.86F
$$

ARZ040-041-182300-
WEST CENTRAL ARKANSAS

CITY           SKY/WX    TMP DP  RH WIND       PRES   REMARKS
MENA           MOSUNNY   75  63  64 E6        29.84F
MOUNT IDA      PTSUNNY   71  62  73 E5        29.82F
$$

ARZ009-017-025-026-028-182300-
NORTHEAST ARKANSAS

CITY           SKY/WX    TMP DP  RH WIND       PRES   REMARKS
CORNING          N/A     75  63  64 SE6       29.87F
JONESBORO      CLOUDY    74  62  66 SE8       29.85F
NEWPORT        CLOUDY    76  64  66 E7        29.86F
WALNUT RIDGE   CLOUDY    75  63  64 SE7       29.86F
BLYTHEVILLE    PTSUNNY   77  62  59 E6        29.86F
$$

ARZ022-023-033-042-044-182300-
CENTRAL ARKANSAS

CITY           SKY/WX    TMP DP  RH WIND       PRES   REMARKS
LITTLE ROCK    CLOUDY    72  60  66 E9        29.84F
N LITTLE ROCK  CLOUDY    71  65  81 E8        29.84F
JACKSONVILLE   PTSUNNY   71  63  74 E6        29.84F
SEARCY         CLOUDY    72  63  73 E8        29.86F
HOT SPRINGS    LGT RAIN  68  64  87 E6        29.85S
RUSSELLVILLE   CLOUDY    74  61  63 SE5       29.84S
CLINTON        FAIR      73  61  64 E3        29.87S
$$

ARZ036-182300-
EAST ARKANSAS

CITY           SKY/WX    TMP DP  RH WIND       PRES   REMARKS
WEST MEMPHIS   CLOUDY    70  64  81 S8        29.85F
$$

ARZ050-053-066-070-073-182300-
SOUTHWEST ARKANSAS

CITY           SKY/WX    TMP DP  RH WIND       PRES   REMARKS
ARKADELPHIA    RAIN      70  69  96 VRB3      29.85R FOG
CAMDEN         CLOUDY    70  63  78 N3        29.83S
TEXARKANA      MOSUNNY   72  65  78 E6        29.81F
EL DORADO      CLOUDY    69  65  86 N6        29.83F
DE QUEEN       PTSUNNY   72  63  73 E9        29.80F
$$

ARZ056-057-069-182300-
SOUTHEAST ARKANSAS

CITY           SKY/WX    TMP DP  RH WIND       PRES   REMARKS
PINE BLUFF     LGT RAIN  66  64  93 E10       29.85S
STUTTGART      CLOUDY    68  63  83 SE8       29.85S
MONTICELLO     CLOUDY    66  64  93 NE8       29.83F FOG

$$




USA.gov is the U.S. government's official web portal to all federal, state and local government web resources and services.